Location: Red Rock Canyon
(36.1333°N, 115.4333°W)
Time: 06:31:14
(UTC-08:00)

ISS - Visible Passes

Search period start: 05 March 2015 00:00
Search period end: 15 March 2015 01:00
Orbit: 397 x 408 km, 51.6° (Epoch: 04 March)

Date Brightness Start Highest point End Pass type
(mag) Time Alt. Az. Time Alt. Az. Time Alt. Az.
08 Mar -0.4 05:52:35 10° SSE 05:54:17 14° SE 05:56:06 10° E visible
09 Mar -3.3 06:34:16 10° SW 06:37:30 83° SE 06:40:44 10° NE visible
10 Mar -2.0 05:42:24 16° SSW 05:44:35 35° SE 05:47:36 10° ENE visible
11 Mar -0.7 04:52:08 17° ESE 04:52:08 17° ESE 04:53:56 10° E visible
11 Mar -2.6 06:24:54 10° WSW 06:27:57 37° NW 06:30:59 10° NE visible
12 Mar -3.5 05:34:19 57° WSW 05:34:53 80° NW 05:38:07 10° NE visible
13 Mar -0.7 04:43:41 21° ENE 04:43:41 21° ENE 04:44:59 10° ENE visible
13 Mar -1.5 06:16:18 11° WNW 06:18:27 19° NNW 06:20:50 10° NNE visible
14 Mar -2.2 05:25:31 31° NNW 05:25:31 31° NNW 05:28:09 10° NNE visible
